Year,Month,Day,Hour,Minute,Value (Times are PST for temperature in C)
2019,08,17,00,00,17.20
2019,08,17,00,01,17.20
2019,08,17,00,02,17.20
2019,08,17,00,03,17.20
2019,08,17,00,04,17.20
2019,08,17,00,05,17.20
2019,08,17,00,06,17.10
2019,08,17,00,07,17.10
2019,08,17,00,08,17.10
2019,08,17,00,09,17.10
2019,08,17,00,10,17.10
2019,08,17,00,11,17.10
2019,08,17,00,12,17.10
2019,08,17,00,13,17.10
2019,08,17,00,14,17.10
2019,08,17,00,15,17.10
2019,08,17,00,16,17.10
2019,08,17,00,17,17.10
2019,08,17,00,18,17.10
2019,08,17,00,19,17.10
2019,08,17,00,20,17.10
2019,08,17,00,21,17.10
2019,08,17,00,22,17.10
2019,08,17,00,23,17.10
2019,08,17,00,24,17.10
2019,08,17,00,25,17.10
2019,08,17,00,26,17.00
2019,08,17,00,27,17.00
2019,08,17,00,28,17.00
2019,08,17,00,29,17.00
2019,08,17,00,30,17.00
2019,08,17,00,31,17.00
2019,08,17,00,32,17.00
2019,08,17,00,33,17.00
2019,08,17,00,34,17.00
2019,08,17,00,35,17.00
2019,08,17,00,36,16.90
2019,08,17,00,37,16.90
2019,08,17,00,38,16.90
2019,08,17,00,39,16.90
2019,08,17,00,40,16.90
2019,08,17,00,41,16.90
2019,08,17,00,42,16.90
2019,08,17,00,43,16.90
2019,08,17,00,44,16.90
2019,08,17,00,45,16.90
2019,08,17,00,46,16.80
2019,08,17,00,47,16.80
2019,08,17,00,48,16.80
2019,08,17,00,49,16.80
2019,08,17,00,50,16.80
2019,08,17,00,51,16.80
2019,08,17,00,52,16.80
2019,08,17,00,53,16.80
2019,08,17,00,54,16.80
2019,08,17,00,55,16.70
2019,08,17,00,56,16.70
2019,08,17,00,57,16.70
2019,08,17,00,58,16.70
2019,08,17,00,59,16.70
2019,08,17,01,00,16.70
2019,08,17,01,01,16.70
2019,08,17,01,02,16.70
2019,08,17,01,03,16.70
2019,08,17,01,04,16.70
2019,08,17,01,05,16.70
2019,08,17,01,06,16.70
2019,08,17,01,07,16.70
2019,08,17,01,08,16.70
2019,08,17,01,09,16.70
2019,08,17,01,10,16.70
2019,08,17,01,11,16.60
2019,08,17,01,12,16.60
2019,08,17,01,13,16.60
2019,08,17,01,14,16.60
2019,08,17,01,15,16.60
2019,08,17,01,16,16.60
2019,08,17,01,17,16.60
2019,08,17,01,18,16.60
2019,08,17,01,19,16.60
2019,08,17,01,20,16.60
2019,08,17,01,21,16.60
2019,08,17,01,22,16.50
2019,08,17,01,23,16.50
2019,08,17,01,24,16.50
2019,08,17,01,25,16.50
2019,08,17,01,26,16.40
2019,08,17,01,27,16.40
2019,08,17,01,28,16.40
2019,08,17,01,29,16.40
2019,08,17,01,30,16.40
2019,08,17,01,31,16.30
2019,08,17,01,32,16.30
2019,08,17,01,33,16.30
2019,08,17,01,34,16.30
2019,08,17,01,35,16.20
2019,08,17,01,36,16.20
2019,08,17,01,37,16.20
2019,08,17,01,38,16.20
2019,08,17,01,39,16.10
2019,08,17,01,40,16.10
2019,08,17,01,41,16.10
2019,08,17,01,42,16.10
2019,08,17,01,43,16.00
2019,08,17,01,44,16.00
2019,08,17,01,45,15.90
2019,08,17,01,46,15.90
2019,08,17,01,47,15.90
2019,08,17,01,48,15.90
2019,08,17,01,49,15.90
2019,08,17,01,50,15.90
2019,08,17,01,51,15.80
2019,08,17,01,52,15.80
2019,08,17,01,53,15.80
2019,08,17,01,54,15.80
2019,08,17,01,55,15.80
2019,08,17,01,56,15.80
2019,08,17,01,57,15.80
2019,08,17,01,58,15.70
2019,08,17,01,59,15.70
2019,08,17,02,00,15.70
2019,08,17,02,01,15.70
2019,08,17,02,02,15.70
2019,08,17,02,03,15.70
2019,08,17,02,04,15.60
2019,08,17,02,05,15.60
2019,08,17,02,06,15.60
2019,08,17,02,07,15.60
2019,08,17,02,08,15.50
2019,08,17,02,09,15.50
2019,08,17,02,10,15.40
2019,08,17,02,11,15.40
2019,08,17,02,12,15.40
2019,08,17,02,13,15.40
2019,08,17,02,14,15.30
2019,08,17,02,15,15.30
2019,08,17,02,16,15.30
2019,08,17,02,17,15.30
2019,08,17,02,18,15.30
2019,08,17,02,19,15.30
2019,08,17,02,20,15.20
2019,08,17,02,21,15.20
2019,08,17,02,22,15.20
2019,08,17,02,23,15.20
2019,08,17,02,24,15.20
2019,08,17,02,25,15.20
2019,08,17,02,26,15.20
2019,08,17,02,27,15.20
2019,08,17,02,28,15.20
2019,08,17,02,29,15.20
2019,08,17,02,30,15.20
2019,08,17,02,31,15.20
2019,08,17,02,32,15.20
2019,08,17,02,33,15.20
2019,08,17,02,34,15.10
2019,08,17,02,35,15.10
2019,08,17,02,36,15.10
2019,08,17,02,37,15.10
2019,08,17,02,38,15.10
2019,08,17,02,39,15.10
2019,08,17,02,40,15.00
2019,08,17,02,41,15.00
2019,08,17,02,42,15.00
2019,08,17,02,43,15.00
2019,08,17,02,44,15.00
2019,08,17,02,45,14.90
2019,08,17,02,46,14.90
2019,08,17,02,47,14.90
2019,08,17,02,48,14.90
2019,08,17,02,49,14.90
2019,08,17,02,50,14.90
2019,08,17,02,51,14.90
2019,08,17,02,52,14.90
2019,08,17,02,53,14.90
2019,08,17,02,54,14.80
2019,08,17,02,55,14.80
2019,08,17,02,56,14.80
2019,08,17,02,57,14.80
2019,08,17,02,58,14.80
2019,08,17,02,59,14.80
2019,08,17,03,00,14.80
2019,08,17,03,01,14.80
2019,08,17,03,02,14.80
2019,08,17,03,03,14.80
2019,08,17,03,04,14.80
2019,08,17,03,05,14.80
2019,08,17,03,06,14.80
2019,08,17,03,07,14.80
2019,08,17,03,08,14.80
2019,08,17,03,09,14.80
2019,08,17,03,10,14.80
2019,08,17,03,11,14.90
2019,08,17,03,12,14.90
2019,08,17,03,13,14.90
2019,08,17,03,14,14.90
2019,08,17,03,15,14.90
2019,08,17,03,16,14.90
2019,08,17,03,17,14.90
2019,08,17,03,18,14.90
2019,08,17,03,19,14.90
2019,08,17,03,20,14.90
2019,08,17,03,21,14.90
2019,08,17,03,22,14.90
2019,08,17,03,23,14.80
2019,08,17,03,24,14.80
2019,08,17,03,25,14.80
2019,08,17,03,26,14.80
2019,08,17,03,27,14.80
2019,08,17,03,28,14.80
2019,08,17,03,29,14.80
2019,08,17,03,30,14.80
2019,08,17,03,31,14.80
2019,08,17,03,32,14.80
2019,08,17,03,33,14.80
2019,08,17,03,34,14.80
2019,08,17,03,35,14.80
2019,08,17,03,36,14.80
2019,08,17,03,37,14.90
2019,08,17,03,38,14.90
2019,08,17,03,39,14.90
2019,08,17,03,40,14.90
2019,08,17,03,41,14.90
2019,08,17,03,42,14.90
2019,08,17,03,43,14.90
2019,08,17,03,44,14.90
2019,08,17,03,45,14.90
2019,08,17,03,46,15.00
2019,08,17,03,47,15.00
2019,08,17,03,48,15.00
2019,08,17,03,49,15.00
2019,08,17,03,50,15.00
2019,08,17,03,51,15.00
2019,08,17,03,52,15.00
2019,08,17,03,53,15.10
2019,08,17,03,54,15.10
2019,08,17,03,55,15.10
2019,08,17,03,56,15.10
2019,08,17,03,57,15.10
2019,08,17,03,58,15.10
2019,08,17,03,59,15.10
2019,08,17,04,00,15.20
2019,08,17,04,01,15.20
2019,08,17,04,02,15.20
2019,08,17,04,03,15.20
2019,08,17,04,04,15.20
2019,08,17,04,08,15.20
2019,08,17,04,09,15.20
2019,08,17,04,10,15.20
2019,08,17,04,11,15.20
2019,08,17,04,12,15.30
2019,08,17,04,13,15.30
2019,08,17,04,14,15.30
2019,08,17,04,15,15.30
2019,08,17,04,16,15.30
2019,08,17,04,17,15.30
2019,08,17,04,18,15.30
2019,08,17,04,19,15.30
2019,08,17,04,20,15.40
2019,08,17,04,21,15.40
2019,08,17,04,22,15.40
2019,08,17,04,23,15.40
2019,08,17,04,24,15.50
2019,08,17,04,25,15.50
2019,08,17,04,26,15.50
2019,08,17,04,27,15.60
2019,08,17,04,28,15.60
2019,08,17,04,29,15.60
2019,08,17,04,30,15.60
2019,08,17,04,31,15.60
2019,08,17,04,32,15.60
2019,08,17,04,33,15.60
2019,08,17,04,34,15.70
2019,08,17,04,35,15.70
2019,08,17,04,36,15.70
2019,08,17,04,37,15.70
2019,08,17,04,38,15.70
2019,08,17,04,39,15.70
2019,08,17,04,40,15.70
2019,08,17,04,41,15.70
2019,08,17,04,42,15.70
2019,08,17,04,43,15.70
2019,08,17,04,44,15.70
2019,08,17,04,45,15.70
2019,08,17,04,46,15.80
2019,08,17,04,47,15.80
2019,08,17,04,48,15.80
2019,08,17,04,49,15.80
2019,08,17,04,50,15.80
2019,08,17,04,51,15.80
2019,08,17,04,52,15.80
2019,08,17,04,53,15.80
2019,08,17,04,54,15.80
2019,08,17,04,55,15.80
2019,08,17,04,56,15.80
2019,08,17,04,57,15.80
2019,08,17,04,58,15.80
2019,08,17,04,59,15.80
2019,08,17,05,00,15.80
2019,08,17,05,01,15.80
2019,08,17,05,02,15.80
2019,08,17,05,03,15.80
2019,08,17,05,04,15.80
2019,08,17,05,05,15.80
2019,08,17,05,06,15.80
2019,08,17,05,07,15.80
2019,08,17,05,08,15.80
2019,08,17,05,09,15.80
2019,08,17,05,10,15.80
2019,08,17,05,11,15.80
2019,08,17,05,12,15.80
2019,08,17,05,13,15.80
2019,08,17,05,14,15.80
2019,08,17,05,15,15.80
2019,08,17,05,16,15.80
2019,08,17,05,17,15.80
2019,08,17,05,18,15.80
2019,08,17,05,19,15.80
2019,08,17,05,20,15.80
2019,08,17,05,21,15.80
2019,08,17,05,22,15.80
2019,08,17,05,23,15.80
2019,08,17,05,24,15.80
2019,08,17,05,25,15.80
2019,08,17,05,26,15.80
2019,08,17,05,27,15.80
2019,08,17,05,28,15.80
2019,08,17,05,29,15.80
2019,08,17,05,30,15.80
2019,08,17,05,31,15.80
2019,08,17,05,32,15.80
2019,08,17,05,33,15.80
2019,08,17,05,34,15.70
2019,08,17,05,35,15.70
2019,08,17,05,36,15.70
2019,08,17,05,37,15.70
2019,08,17,05,38,15.70
2019,08,17,05,39,15.70
2019,08,17,05,40,15.70
2019,08,17,05,41,15.70
2019,08,17,05,42,15.70
2019,08,17,05,43,15.70
2019,08,17,05,44,15.70
2019,08,17,05,45,15.70
2019,08,17,05,46,15.70
2019,08,17,05,47,15.70
2019,08,17,05,48,15.70
2019,08,17,05,49,15.60
2019,08,17,05,50,15.60
2019,08,17,05,51,15.60
2019,08,17,05,52,15.60
2019,08,17,05,53,15.60
2019,08,17,05,54,15.60
2019,08,17,05,55,15.60
2019,08,17,05,56,15.60
2019,08,17,05,57,15.60
2019,08,17,05,58,15.60
2019,08,17,05,59,15.60
2019,08,17,06,00,15.60
2019,08,17,06,01,15.60
2019,08,17,06,02,15.60
2019,08,17,06,03,15.60
2019,08,17,06,04,15.60
2019,08,17,06,05,15.60
2019,08,17,06,06,15.60
2019,08,17,06,07,15.60
2019,08,17,06,08,15.60
2019,08,17,06,09,15.60
2019,08,17,06,10,15.50
2019,08,17,06,11,15.50
2019,08,17,06,12,15.50
2019,08,17,06,13,15.50
2019,08,17,06,14,15.50
2019,08,17,06,15,15.50
2019,08,17,06,16,15.50
2019,08,17,06,17,15.50
2019,08,17,06,18,15.50
2019,08,17,06,19,15.50
2019,08,17,06,20,15.50
2019,08,17,06,21,15.50
2019,08,17,06,22,15.50
2019,08,17,06,23,15.50
2019,08,17,06,24,15.40
2019,08,17,06,25,15.40
2019,08,17,06,26,15.40
2019,08,17,06,27,15.40
2019,08,17,06,28,15.40
2019,08,17,06,29,15.40
2019,08,17,06,30,15.40
2019,08,17,06,31,15.40
2019,08,17,06,32,15.40
2019,08,17,06,33,15.40
2019,08,17,06,34,15.40
2019,08,17,06,35,15.40
2019,08,17,06,36,15.40
2019,08,17,06,37,15.40
2019,08,17,06,38,15.40
2019,08,17,06,39,15.40
2019,08,17,06,40,15.40
2019,08,17,06,41,15.40
2019,08,17,06,42,15.40
2019,08,17,06,43,15.40
2019,08,17,06,44,15.40
2019,08,17,06,45,15.40
2019,08,17,06,46,15.40
2019,08,17,06,47,15.40
2019,08,17,06,48,15.40
2019,08,17,06,49,15.40
2019,08,17,06,50,15.40
2019,08,17,06,51,15.40
2019,08,17,06,52,15.40
2019,08,17,06,53,15.40
2019,08,17,06,54,15.40
2019,08,17,06,55,15.40
2019,08,17,06,56,15.40
2019,08,17,06,57,15.40
2019,08,17,06,58,15.40
2019,08,17,06,59,15.40
2019,08,17,07,00,15.40
2019,08,17,07,01,15.50
2019,08,17,07,02,15.50
2019,08,17,07,03,15.50
2019,08,17,07,04,15.50
2019,08,17,07,05,15.50
2019,08,17,07,06,15.60
2019,08,17,07,07,15.60
2019,08,17,07,08,15.60
2019,08,17,07,09,15.60
2019,08,17,07,10,15.60
2019,08,17,07,11,15.60
2019,08,17,07,12,15.60
2019,08,17,07,13,15.60
2019,08,17,07,14,15.60
2019,08,17,07,15,15.60
2019,08,17,07,16,15.60
2019,08,17,07,17,15.60
2019,08,17,07,18,15.70
2019,08,17,07,19,15.70
2019,08,17,07,20,15.70
2019,08,17,07,21,15.70
2019,08,17,07,22,15.70
2019,08,17,07,23,15.70
2019,08,17,07,24,15.80
2019,08,17,07,25,15.80
2019,08,17,07,26,15.80
2019,08,17,07,27,15.80
2019,08,17,07,28,15.80
2019,08,17,07,29,15.80
2019,08,17,07,30,15.80
2019,08,17,07,31,15.80
2019,08,17,07,32,15.90
2019,08,17,07,33,15.90
2019,08,17,07,34,15.90
2019,08,17,07,35,15.90
2019,08,17,07,36,15.90
2019,08,17,07,37,16.00
2019,08,17,07,38,16.00
2019,08,17,07,39,16.00
2019,08,17,07,40,16.10
2019,08,17,07,41,16.10
2019,08,17,07,42,16.10
2019,08,17,07,43,16.10
2019,08,17,07,44,16.10
2019,08,17,07,45,16.10
2019,08,17,07,46,16.20
2019,08,17,07,47,16.20
2019,08,17,07,48,16.20
2019,08,17,07,49,16.20
2019,08,17,07,50,16.20
2019,08,17,07,51,16.20
2019,08,17,07,52,16.20
2019,08,17,07,53,16.20
2019,08,17,07,54,16.20
2019,08,17,07,55,16.30
2019,08,17,07,56,16.30
2019,08,17,07,57,16.30
2019,08,17,07,58,16.30
2019,08,17,07,59,16.30
2019,08,17,08,00,16.30
2019,08,17,08,01,16.30
2019,08,17,08,02,16.30
2019,08,17,08,03,16.30
2019,08,17,08,04,16.30
2019,08,17,08,05,16.40
2019,08,17,08,06,16.40
2019,08,17,08,07,16.40
2019,08,17,08,08,16.40
2019,08,17,08,09,16.40
2019,08,17,08,10,16.40
2019,08,17,08,11,16.50
2019,08,17,08,12,16.50
2019,08,17,08,13,16.50
2019,08,17,08,14,16.60
2019,08,17,08,15,16.60
2019,08,17,08,16,16.60
2019,08,17,08,17,16.60
2019,08,17,08,18,16.70
2019,08,17,08,19,16.70
2019,08,17,08,20,16.70
2019,08,17,08,21,16.70
2019,08,17,08,22,16.70
2019,08,17,08,23,16.80
2019,08,17,08,24,16.80
2019,08,17,08,25,16.80
2019,08,17,08,26,16.80
2019,08,17,08,27,16.90
2019,08,17,08,28,16.90
2019,08,17,08,29,16.90
2019,08,17,08,30,17.00
2019,08,17,08,31,17.00
2019,08,17,08,32,17.00
2019,08,17,08,33,17.00
2019,08,17,08,34,17.10
2019,08,17,08,35,17.10
2019,08,17,08,36,17.00
2019,08,17,08,37,17.00
2019,08,17,08,38,17.00
2019,08,17,08,39,17.00
2019,08,17,08,40,17.00
2019,08,17,08,41,17.00
2019,08,17,08,42,17.00
2019,08,17,08,43,17.00
2019,08,17,08,44,17.00
2019,08,17,08,45,17.00
2019,08,17,08,46,17.00
2019,08,17,08,47,17.00
2019,08,17,08,48,17.00
2019,08,17,08,49,17.00
2019,08,17,08,50,17.00
2019,08,17,08,51,17.10
2019,08,17,08,52,17.10
2019,08,17,08,53,17.10
2019,08,17,08,54,17.10
2019,08,17,08,55,17.10
2019,08,17,08,56,17.10
2019,08,17,08,57,17.10
2019,08,17,08,58,17.10
2019,08,17,08,59,17.20
2019,08,17,09,00,17.20
2019,08,17,09,01,17.20
2019,08,17,09,02,17.20
2019,08,17,09,03,17.30
2019,08,17,09,04,17.30
2019,08,17,09,05,17.30
2019,08,17,09,06,17.30
2019,08,17,09,07,17.40
2019,08,17,09,08,17.40
2019,08,17,09,09,17.40
2019,08,17,09,10,17.40
2019,08,17,09,11,17.40
2019,08,17,09,12,17.40
2019,08,17,09,13,17.50
2019,08,17,09,14,17.50
2019,08,17,09,15,17.50
2019,08,17,09,16,17.50
2019,08,17,09,17,17.50
2019,08,17,09,18,17.60
2019,08,17,09,19,17.60
2019,08,17,09,20,17.60
2019,08,17,09,21,17.60
2019,08,17,09,22,17.60
2019,08,17,09,23,17.60
2019,08,17,09,24,17.60
2019,08,17,09,25,17.60
2019,08,17,09,26,17.60
2019,08,17,09,27,17.60
2019,08,17,09,28,17.60
2019,08,17,09,29,17.60
2019,08,17,09,30,17.60
2019,08,17,09,31,17.60
2019,08,17,09,32,17.60
2019,08,17,09,33,17.60
2019,08,17,09,34,17.60
2019,08,17,09,35,17.60
2019,08,17,09,36,17.60
2019,08,17,09,37,17.60
2019,08,17,09,38,17.60
2019,08,17,09,39,17.60
2019,08,17,09,40,17.60
2019,08,17,09,41,17.60
2019,08,17,09,42,17.60
2019,08,17,09,43,17.60
2019,08,17,09,44,17.70
2019,08,17,09,45,17.70
2019,08,17,09,46,17.70
2019,08,17,09,47,17.70
2019,08,17,09,48,17.70
2019,08,17,09,49,17.80
2019,08,17,09,50,17.80
2019,08,17,09,51,17.80
2019,08,17,09,52,17.80
2019,08,17,09,53,17.80
2019,08,17,09,54,17.80
2019,08,17,09,55,17.80
2019,08,17,09,56,17.80
2019,08,17,09,57,17.90
2019,08,17,09,58,17.90
2019,08,17,09,59,17.90
2019,08,17,10,00,17.90
2019,08,17,10,01,18.00
2019,08,17,10,02,18.00
2019,08,17,10,03,18.00
2019,08,17,10,04,18.00
2019,08,17,10,05,18.00
2019,08,17,10,06,18.00
2019,08,17,10,07,18.00
2019,08,17,10,08,18.00
2019,08,17,10,09,18.00
2019,08,17,10,10,18.10
2019,08,17,10,11,18.10
2019,08,17,10,12,18.10
2019,08,17,10,13,18.10
2019,08,17,10,14,18.10
2019,08,17,10,15,18.10
2019,08,17,10,16,18.10
2019,08,17,10,17,18.10
2019,08,17,10,18,18.10
2019,08,17,10,19,18.10
2019,08,17,10,20,18.10
2019,08,17,10,21,18.10
2019,08,17,10,22,18.10
2019,08,17,10,23,18.20
2019,08,17,10,24,18.20
2019,08,17,10,25,18.30
2019,08,17,10,26,18.30
2019,08,17,10,27,18.40
2019,08,17,10,28,18.40
2019,08,17,10,29,18.40
2019,08,17,10,30,18.40
2019,08,17,10,31,18.40
2019,08,17,10,32,18.40
2019,08,17,10,33,18.30
2019,08,17,10,34,18.30
2019,08,17,10,35,18.30
2019,08,17,10,36,18.30
2019,08,17,10,37,18.30
2019,08,17,10,38,18.30
2019,08,17,10,39,18.30
2019,08,17,10,40,18.30
2019,08,17,10,41,18.30
2019,08,17,10,42,18.30
2019,08,17,10,43,18.20
2019,08,17,10,44,18.20
2019,08,17,10,45,18.20
2019,08,17,10,46,18.20
2019,08,17,10,47,18.20
2019,08,17,10,48,18.20
2019,08,17,10,49,18.10
2019,08,17,10,50,18.10
2019,08,17,10,51,18.10
2019,08,17,10,52,18.10
2019,08,17,10,53,18.00
2019,08,17,10,54,18.00
2019,08,17,10,55,17.90
2019,08,17,10,56,18.00
2019,08,17,10,57,18.00
2019,08,17,10,58,18.00
2019,08,17,10,59,18.00
2019,08,17,11,00,18.10
2019,08,17,11,01,18.10
2019,08,17,11,02,18.10
2019,08,17,11,03,18.10
2019,08,17,11,04,18.10
2019,08,17,11,05,18.10
2019,08,17,11,06,18.10
2019,08,17,11,07,18.10
2019,08,17,11,08,18.10
2019,08,17,11,09,18.10
2019,08,17,11,10,18.10
2019,08,17,11,11,18.10
2019,08,17,11,12,18.20
2019,08,17,11,13,18.10
2019,08,17,11,14,18.10
2019,08,17,11,15,18.10
2019,08,17,11,16,18.10
2019,08,17,11,17,18.00
2019,08,17,11,18,18.00
2019,08,17,11,19,17.90
2019,08,17,11,20,17.90
2019,08,17,11,21,17.80
2019,08,17,11,22,17.80
2019,08,17,11,23,17.80
2019,08,17,11,24,17.80
2019,08,17,11,25,17.80
2019,08,17,11,26,17.80
2019,08,17,11,27,17.80
2019,08,17,11,28,17.80
2019,08,17,11,29,17.80
2019,08,17,11,30,17.80
2019,08,17,11,31,17.80
2019,08,17,11,32,17.90
2019,08,17,11,33,17.90
2019,08,17,11,34,17.90
2019,08,17,11,35,17.90
2019,08,17,11,36,17.90
2019,08,17,11,37,18.00
2019,08,17,11,38,18.00
2019,08,17,11,39,18.00
2019,08,17,11,40,18.10
2019,08,17,11,41,18.10
2019,08,17,11,42,18.20
2019,08,17,11,43,18.20
2019,08,17,11,44,18.20
2019,08,17,11,45,18.30
2019,08,17,11,46,18.30
2019,08,17,11,47,18.30
2019,08,17,11,48,18.30
2019,08,17,11,49,18.40
2019,08,17,11,50,18.30
2019,08,17,11,51,18.30
2019,08,17,11,52,18.30
2019,08,17,11,53,18.30
2019,08,17,11,54,18.30
2019,08,17,11,55,18.30
2019,08,17,11,56,18.30
2019,08,17,11,57,18.30
2019,08,17,11,58,18.30
2019,08,17,11,59,18.30
2019,08,17,12,00,18.30
2019,08,17,12,01,18.20
2019,08,17,12,02,18.20
2019,08,17,12,03,18.20
2019,08,17,12,04,18.30
2019,08,17,12,05,18.30
2019,08,17,12,06,18.40
2019,08,17,12,07,18.40
2019,08,17,12,08,18.50
2019,08,17,12,09,18.50
2019,08,17,12,10,18.50
2019,08,17,12,11,18.50
2019,08,17,12,12,18.50
2019,08,17,12,13,18.50
2019,08,17,12,14,18.50
2019,08,17,12,15,18.50
2019,08,17,12,16,18.50
2019,08,17,12,17,18.50
2019,08,17,12,18,18.50
2019,08,17,12,19,18.50
2019,08,17,12,20,18.40
2019,08,17,12,21,18.40
2019,08,17,12,22,18.40
2019,08,17,12,23,18.40
2019,08,17,12,24,18.30
2019,08,17,12,25,18.20
2019,08,17,12,26,18.20
2019,08,17,12,27,18.10
2019,08,17,12,28,18.00
2019,08,17,12,29,18.00
2019,08,17,12,30,17.90
2019,08,17,12,31,17.90
2019,08,17,12,32,17.90
2019,08,17,12,33,17.90
2019,08,17,12,34,17.90
2019,08,17,12,35,18.00
2019,08,17,12,36,18.10
2019,08,17,12,37,18.10
2019,08,17,12,38,18.20
2019,08,17,12,39,18.20
2019,08,17,12,40,18.20
2019,08,17,12,41,18.30
2019,08,17,12,42,18.30
2019,08,17,12,43,18.20
2019,08,17,12,44,18.20
2019,08,17,12,45,18.20
2019,08,17,12,46,18.10
2019,08,17,12,47,18.10
2019,08,17,12,48,18.20
2019,08,17,12,49,18.20
2019,08,17,12,50,18.20
2019,08,17,12,51,18.20
2019,08,17,12,52,18.20
2019,08,17,12,53,18.20
2019,08,17,12,54,18.30
2019,08,17,12,55,18.30
2019,08,17,12,56,18.30
2019,08,17,12,57,18.40
2019,08,17,12,58,18.40
2019,08,17,12,59,18.50
2019,08,17,13,00,18.50
2019,08,17,13,01,18.50
2019,08,17,13,02,18.50
2019,08,17,13,03,18.50
2019,08,17,13,04,18.60
2019,08,17,13,05,18.60
2019,08,17,13,06,18.60
2019,08,17,13,07,18.60
2019,08,17,13,08,18.60
2019,08,17,13,09,18.60
2019,08,17,13,10,18.60
2019,08,17,13,11,18.60
2019,08,17,13,12,18.60
2019,08,17,13,13,18.50
2019,08,17,13,14,18.50
2019,08,17,13,15,18.50
2019,08,17,13,16,18.50
2019,08,17,13,17,18.50
2019,08,17,13,18,18.50
2019,08,17,13,19,18.50
2019,08,17,13,20,18.60
2019,08,17,13,21,18.60
2019,08,17,13,22,18.60
2019,08,17,13,23,18.70
2019,08,17,13,24,18.70
2019,08,17,13,25,18.60
2019,08,17,13,26,18.60
2019,08,17,13,27,18.60
2019,08,17,13,28,18.50
2019,08,17,13,29,18.50
2019,08,17,13,30,18.40
2019,08,17,13,31,18.40
2019,08,17,13,32,18.30
2019,08,17,13,33,18.30
2019,08,17,13,34,18.30
2019,08,17,13,35,18.30
2019,08,17,13,36,18.30
2019,08,17,13,37,18.30
2019,08,17,13,38,18.30
2019,08,17,13,39,18.30
2019,08,17,13,40,18.30
2019,08,17,13,41,18.20
2019,08,17,13,42,18.20
2019,08,17,13,43,18.20
2019,08,17,13,44,18.20
2019,08,17,13,45,18.20
2019,08,17,13,46,18.10
2019,08,17,13,47,18.00
2019,08,17,13,48,18.00
2019,08,17,13,49,17.90
2019,08,17,13,50,17.80
2019,08,17,13,51,17.80
2019,08,17,13,52,17.80
2019,08,17,13,53,17.80
2019,08,17,13,54,17.90
2019,08,17,13,55,17.90
2019,08,17,13,56,17.90
2019,08,17,13,57,17.90
2019,08,17,13,58,17.90
2019,08,17,13,59,18.00
2019,08,17,14,00,18.00
2019,08,17,14,01,18.10
2019,08,17,14,02,18.10
2019,08,17,14,03,18.20
2019,08,17,14,04,18.20
2019,08,17,14,05,18.20
2019,08,17,14,06,18.30
2019,08,17,14,07,18.30
2019,08,17,14,08,18.40
2019,08,17,14,09,18.40
2019,08,17,14,10,18.40
2019,08,17,14,11,18.40
2019,08,17,14,12,18.50
2019,08,17,14,13,18.50
2019,08,17,14,14,18.60
2019,08,17,14,15,18.60
2019,08,17,14,16,18.70
2019,08,17,14,17,18.80
2019,08,17,14,18,18.90
2019,08,17,14,19,18.90
2019,08,17,14,20,18.90
2019,08,17,14,21,19.00
2019,08,17,14,22,19.00
2019,08,17,14,23,19.10
2019,08,17,14,24,19.10
2019,08,17,14,25,19.10
2019,08,17,14,26,19.10
2019,08,17,14,27,19.10
2019,08,17,14,28,19.10
2019,08,17,14,29,19.10
2019,08,17,14,30,19.10
2019,08,17,14,31,19.10
2019,08,17,14,32,19.20
2019,08,17,14,33,19.10
2019,08,17,14,34,19.10
2019,08,17,14,35,19.10
2019,08,17,14,36,19.10
2019,08,17,14,37,19.10
2019,08,17,14,38,19.10
2019,08,17,14,39,19.10
2019,08,17,14,40,19.10
2019,08,17,14,41,19.20
2019,08,17,14,42,19.20
2019,08,17,14,43,19.30
2019,08,17,14,44,19.30
2019,08,17,14,45,19.40
2019,08,17,14,46,19.40
2019,08,17,14,47,19.50
2019,08,17,14,48,19.60
2019,08,17,14,49,19.60
2019,08,17,14,50,19.60
2019,08,17,14,51,19.70
2019,08,17,14,52,19.70
2019,08,17,14,53,19.70
2019,08,17,14,54,19.70
2019,08,17,14,55,19.70
2019,08,17,14,56,19.70
2019,08,17,14,57,19.80
2019,08,17,14,58,19.80
2019,08,17,14,59,19.80
2019,08,17,15,00,19.80
2019,08,17,15,01,19.90
2019,08,17,15,02,19.90
2019,08,17,15,03,19.90
2019,08,17,15,04,19.90
2019,08,17,15,05,19.90
2019,08,17,15,06,19.90
2019,08,17,15,07,19.90
2019,08,17,15,08,19.90
2019,08,17,15,09,19.90
2019,08,17,15,10,19.90
2019,08,17,15,11,20.00
2019,08,17,15,12,20.00
2019,08,17,15,13,20.10
2019,08,17,15,14,20.20
2019,08,17,15,15,20.30
2019,08,17,15,16,20.40
2019,08,17,15,17,20.40
2019,08,17,15,18,20.50
2019,08,17,15,19,20.50
2019,08,17,15,20,20.60
2019,08,17,15,21,20.60
2019,08,17,15,22,20.60
2019,08,17,15,23,20.60
2019,08,17,15,24,20.60
2019,08,17,15,25,20.70
2019,08,17,15,26,20.70
2019,08,17,15,27,20.70
2019,08,17,15,28,20.80
2019,08,17,15,29,20.80
2019,08,17,15,30,20.80
2019,08,17,15,31,20.70
2019,08,17,15,32,20.70
2019,08,17,15,33,20.70
2019,08,17,15,34,20.70
2019,08,17,15,35,20.70
2019,08,17,15,36,20.70
2019,08,17,15,37,20.60
2019,08,17,15,38,20.60
2019,08,17,15,39,20.60
2019,08,17,15,40,20.50
2019,08,17,15,41,20.50
2019,08,17,15,42,20.40
2019,08,17,15,43,20.40
2019,08,17,15,44,20.50
2019,08,17,15,45,20.50
2019,08,17,15,46,20.60
2019,08,17,15,47,20.70
2019,08,17,15,48,20.80
2019,08,17,15,49,20.80
2019,08,17,15,50,20.90
2019,08,17,15,51,21.00
2019,08,17,15,52,21.10
2019,08,17,15,53,21.20
2019,08,17,15,54,21.30
2019,08,17,15,55,21.40
2019,08,17,15,56,21.40
2019,08,17,15,57,21.50
2019,08,17,15,58,21.60
2019,08,17,15,59,21.60
2019,08,17,16,00,21.60
2019,08,17,16,01,21.70
2019,08,17,16,02,21.70
2019,08,17,16,03,21.80
2019,08,17,16,04,21.80
2019,08,17,16,05,21.90
2019,08,17,16,06,21.90
2019,08,17,16,07,22.00
2019,08,17,16,08,22.00
2019,08,17,16,09,22.10
2019,08,17,16,10,22.10
2019,08,17,16,11,22.20
2019,08,17,16,12,22.20
2019,08,17,16,13,22.20
2019,08,17,16,14,22.10
2019,08,17,16,15,22.10
2019,08,17,16,16,22.00
2019,08,17,16,17,22.00
2019,08,17,16,18,22.00
2019,08,17,16,19,22.00
2019,08,17,16,20,22.00
2019,08,17,16,21,21.90
2019,08,17,16,22,22.00
2019,08,17,16,23,21.90
2019,08,17,16,24,21.90
2019,08,17,16,25,21.90
2019,08,17,16,26,22.00
2019,08,17,16,27,22.10
2019,08,17,16,28,22.10
2019,08,17,16,29,22.20
2019,08,17,16,30,22.20
2019,08,17,16,31,22.20
2019,08,17,16,32,22.20
2019,08,17,16,33,22.20
2019,08,17,16,34,22.20
2019,08,17,16,35,22.10
2019,08,17,16,36,22.10
2019,08,17,16,37,22.10
2019,08,17,16,38,22.10
2019,08,17,16,39,22.10
2019,08,17,16,40,22.10
2019,08,17,16,41,22.00
2019,08,17,16,42,22.00
2019,08,17,16,43,21.90
2019,08,17,16,44,21.90
2019,08,17,16,45,21.90
2019,08,17,16,46,21.90
2019,08,17,16,47,21.90
2019,08,17,16,48,21.90
2019,08,17,16,49,21.90
2019,08,17,16,50,21.90
2019,08,17,16,51,21.90
2019,08,17,16,52,21.90
2019,08,17,16,53,21.90
2019,08,17,16,54,21.90
2019,08,17,16,55,21.90
2019,08,17,16,56,21.90
2019,08,17,16,57,21.90
2019,08,17,16,58,21.90
2019,08,17,16,59,21.90
2019,08,17,17,00,21.90
2019,08,17,17,01,21.90
2019,08,17,17,02,21.90
2019,08,17,17,03,21.90
2019,08,17,17,04,21.90
2019,08,17,17,05,21.90
2019,08,17,17,06,21.90
2019,08,17,17,07,21.90
2019,08,17,17,08,21.90
2019,08,17,17,09,21.90
2019,08,17,17,10,21.80
2019,08,17,17,11,21.80
2019,08,17,17,12,21.70
2019,08,17,17,13,21.70
2019,08,17,17,14,21.60
2019,08,17,17,15,21.60
2019,08,17,17,16,21.60
2019,08,17,17,17,21.60
2019,08,17,17,18,21.60
2019,08,17,17,19,21.60
2019,08,17,17,20,21.60
2019,08,17,17,21,21.60
2019,08,17,17,22,21.60